Regional Weather Roundup
Issued by NWS

Home | Current Version | Previous Version | Text Only | Print | Product List | Glossary On
Versions: 1 2 3 4 5 6 7 8 9 10 11 12 13 14 15 16 17 18 19 20 21 22 23 24 25 26 27 28 29 30 31 32 33 34 35 36 37 38 39 40 41 42 43 44 45 46 47 48 49 50
000
ASUS42 KFFC 230103
RWRGA
WEATHER ROUNDUP FOR GEORGIA
NATIONAL WEATHER SERVICE PEACHTREE CITY GA
900 PM EDT TUE AUG 22 2017

NOTE: "FAIR" INDICATES FEW OR NO CLOUDS BELOW 12,000 FEET WITH NO
SIGNIFICANT WEATHER AND/OR OBSTRUCTIONS TO VISIBILITY.

* = USE WITH CAUTION. THE STATIONS MARKED WITH AN ASTERISK MAY NOT
REPORT WEATHER SUCH AS PRECIPITATION, FOG, OR THUNDER AND ARE NOT
QUALITY CONTROLLED BY NWS.

THE REMARK "TC" DENOTES TEMPERATURE READING IN DEGREES CELSIUS.

GAZ001>058-230200-
NORTH GEORGIA

CITY           SKY/WX    TMP DP  RH WIND       PRES   REMARKS
ATLANTA        PTCLDY    83  72  69 S10       30.01S
ATHENS         PTCLDY    79  75  87 S5        30.00S
CHAMBLEE       CLEAR     82  68  62 SE3       30.00S
PEACHTREE CITY CLEAR     79  74  84 CALM      30.02S
ROME           CLEAR     83  72  69 CALM      29.97S
WEST ATLANTA   CLEAR     85  73  67 SW3       29.99F HX  91
GAINESVILLE    CLOUDY    83  73  72 S6        30.03S
CARTERSVILLE   CLEAR     80  74  81 S3        30.00S


CITY           SKY/WX    TMP DP  RH WIND       PRES   REMARKS
LAWRENCEVILLE* MOCLDY    82  73  74 S7        30.02S
MARIETTA       PTCLDY    83  70  64 SW3       30.01S
KENNESAW*      CLEAR     84  71  65 SW6       30.02R
CANTON*        CLEAR     84  72  65 W5        30.03S
$$

GAZ059>098-102>109-230200-
CENTRAL GEORGIA

CITY           SKY/WX    TMP DP  RH WIND       PRES   REMARKS
AUGUSTA-BUSH   CLEAR     82  75  79 CALM      29.97S
AUGUSTA-DANIEL CLEAR     83  71  67 W3        29.99F
COLUMBUS       CLEAR     86  74  67 E3        29.99R HX  94
MACON          PTCLDY    79  74  84 CALM      29.99F
ROBINS AFB     PTCLDY    82  75  78 CALM      29.99F


CITY           SKY/WX    TMP DP  RH WIND       PRES   REMARKS
LAGRANGE*      CLEAR     79  79  98 CALM      30.01S
SYLVANIA*        N/A     81  77  89 CALM      30.01S
MILLEDGEVILLE* PTCLDY    79  73  83 CALM      29.99S
$$

GAZ099>101-110>166-230200-
SOUTH GEORGIA

CITY           SKY/WX    TMP DP  RH WIND       PRES   REMARKS
SAVANNAH       MOCLDY    80  75  84 SW5       30.01S
VALDOSTA       CLEAR     78  75  90 CALM      30.00S
ALMA           CLOUDY    81  75  82 SE3       30.00S
ST SIMONS      PTCLDY    83  74  74 S5        30.00F
FT STEWART     PTCLDY    78  75  89 S5        29.99S
ALBANY         PTCLDY    83  74  74 SW5       30.01F
HUNTER AFB     PTCLDY    81  75  81 CALM      29.98S
MOODY AFB      CLEAR     83  73  72 W3        30.00S
BRUNSWICK      PTCLDY    77  73  88 CALM      30.01S


CITY           SKY/WX    TMP DP  RH WIND       PRES   REMARKS
BAINBRIDGE*    CLOUDY    81  79  94 CALM      30.00S
MOULTRIE*      PTCLDY    81  73  78 CALM      30.01S
VIDALIA*       CLOUDY    79  77  94 CALM      30.01R
WAYCROSS*      CLOUDY    80  77  91 SE3       30.00S
DOUGLAS*       PTCLDY    81  72  74 CALM      30.02S
$$



USA.gov is the U.S. government's official web portal to all federal, state and local government web resources and services.